Flag for U.S.A. Weather past 2 weeks in Topeka, Kansas, U.S.A.

Now
25 °F

Clear.


Feels Like: 12 °F
Forecast: 19 / 31 °F
Wind: 16 mph from North

Location: Philip Billard Municipal Airport

Current Time: Mar 4, 2015 at 1:25:48 AM

Latest Report: Mar 4, 2015 at 12:53 AM


Visibility: 10 mi

Pressure: 30.15 "Hg

Humidity: 55%

Dew point: 11 °F

Location of TopekaLocation

Historic Weather in Topeka — Graph

°F

Topeka temperature yesterday

Maximum temperature yesterday: 48 °F (at 10:53 AM)
Minimum temperature yesterday: 28 °F (at 11:53 PM)
Average temperature yesterday: 39 °F

Past Weeks' High & Low Weather Summary

 TemperatureHumidityPressure
High56 °F (Feb 25, 1:53 PM)100% (Feb 21, 8:02 AM)30.83 "Hg (Feb 21, 8:02 AM)
Low2 °F (Feb 19, 1:53 AM)27% (Feb 23, 4:53 PM)29.71 "Hg (Mar 3, 7:53 AM)
Average24 °F65%30.30 "Hg
* Reported Feb 16 11:53 PM — Mar 3 11:53 PM, Topeka, Weather by CustomWeather, © 2015

Note: Actual official high and low records may vary slightly from our data, if they occured in-between our weather recording intervals... More about our weather records

Advertising

Topeka weather history for previous 24 hours

 ConditionsComfort  
Time TempWeatherWind HumidityBarometerVisibility
11:53 PM
Tue, Mar 3
28 °FClear.14 mph61%30.12 "Hg10 mi
10:53 PM30 °FClear.12 mph61%30.06 "Hg10 mi
10:01 PM31 °FPassing clouds.9 mph67%30.03 "Hg10 mi
8:53 PM33 °FOvercast.9 mph61%30.01 "Hg10 mi
7:53 PM34 °FOvercast.6 mph61%29.99 "Hg10 mi
6:53 PM35 °FOvercast.15 mph61%29.96 "Hg10 mi
5:53 PM38 °FOvercast.14 mph63%29.94 "Hg10 mi
4:53 PM43 °FPartly sunny.13 mph53%29.90 "Hg10 mi
3:53 PM44 °FSunny.12 mph51%29.86 "Hg10 mi
2:53 PM45 °FPassing clouds.13 mph51%29.87 "Hg10 mi
1:53 PM46 °FPartly sunny.17 mph54%29.84 "Hg10 mi
12:53 PM44 °FOvercast.20 mph63%29.85 "Hg10 mi
11:53 AM46 °FOvercast.16 mph66%29.83 "Hg10 mi
10:53 AM48 °FOvercast.12 mph63%29.78 "Hg10 mi
10:01 AM46 °FBroken clouds.12 mph71%29.77 "Hg10 mi
8:53 AM44 °FOvercast.17 mph76%29.74 "Hg10 mi
7:53 AM42 °FOvercast.12 mph82%29.71 "Hg9 mi
6:53 AM39 °FLow clouds.14 mph89%29.73 "Hg8 mi
5:53 AM38 °FLow clouds.10 mph90%29.75 "Hg8 mi
4:53 AM37 °FFog.12 mph89%29.73 "Hg6 mi
3:53 AM36 °FFog.9 mph92%29.78 "Hg6 mi
2:53 AM35 °FFog.10 mph92%29.84 "Hg4 mi
1:53 AM34 °FFog.12 mph92%29.88 "Hg5 mi
1:04 AM34 °FLow clouds.8 mph88%29.90 "Hg7 mi
Weather by CustomWeather, © 2015

See weather overviewHow to use our weather pages